Location: Cassano d�Adda
(45.5333°N, 9.5167°E)
Time: 19:31:16
(UTC+00:00)

ATLAS 2AS CENTAUR R/B - Pass Details

Date: 08 December 2019
Orbit: 927 x 1285 km, 63.7° (Epoch: 19 January)

Event Time Altitude Azimuth Distance (km) Brightness Sun altitude
Rises 16:24:02 0° 236° (SW) 4,200 8.0 -7.9°
Reaches altitude 10° 16:26:54 10° 241° (WSW) 3,259 6.9 -8.3°
Maximum altitude 16:34:40 54° 317° (NW) 1,535 3.7 -9.6°
Drops below altitude 10° 16:42:28 10° 34° (NNE) 3,257 4.7 -10.8°
Enters shadow 16:43:22 - 36° (NE) 3,550 4.9 -11.0°
